Temp_Advection
nan nan nan nan nan nan nan nan nan nan nan nan nan nan nan nan nan nan nan nan nan nan nan nan nan nan nan nan nan nan nan nan nan nan nan nan nan nan nan nan nan nan nan
nan -2 -2 -1 -1 -1 -1 -0 -1 -0 -0 0 0 0 1 0 -1 -1 -1 -0 -0 -0 -0 0 -0 -0 -0 0 0 0 0 0 0 1 0 1 0 0 0 0 -0 -0 nan
nan -2 -2 -2 -2 -1 -1 -1 -1 -1 -1 0 0 1 1 -0 -1 -1 -1 -1 -1 -0 0 -0 -0 0 -0 -0 1 1 1 0 0 0 1 -0 -0 0 0 0 -0 0 nan
nan -1 -1 -2 -2 -1 0 -0 -1 -1 -1 -0 0 1 1 -0 -1 -0 -0 -0 -0 -1 -0 -0 0 -0 -0 0 -0 0 0 1 1 1 0 -1 0 0 0 -0 -1 0 nan
nan -1 -1 -1 -1 -1 0 -0 -0 -0 0 0 0 1 0 -1 -0 1 -0 -1 -1 -0 -1 -0 0 -0 0 0 -0 0 0 1 0 0 1 0 1 0 0 -0 -0 -0 nan
nan -0 -0 -1 -1 -0 -0 -0 0 0 0 1 0 0 0 0 0 -1 -1 -1 -0 -1 -0 -0 -0 0 -0 -0 0 0 0 0 1 1 -0 -0 1 -0 0 -1 -0 -0 nan
nan 0 -0 -0 -0 -1 -1 -1 -0 -0 0 0 0 0 0 1 0 -0 -0 -1 -1 -0 -0 -0 -0 0 0 0 0 0 0 0 0 -0 0 1 -1 -0 0 0 1 -1 nan
nan 0 1 0 -1 -2 -2 -1 -0 -1 -0 0 0 1 0 0 1 1 -0 -1 -1 -1 -0 -0 -0 0 0 -0 -0 0 -0 0 0 0 0 0 1 1 0 0 -0 0 nan
nan 1 0 -0 -1 -2 -2 -3 -1 -1 -1 -1 -0 0 1 1 1 0 -1 -2 -1 -0 -0 -0 0 0 0 -0 -0 -1 0 0 -0 0 0 1 0 -0 0 0 0 0 nan
nan -0 0 0 -0 -0 -0 -1 -2 -1 -1 -0 -0 -0 -0 1 1 -0 -1 -1 -1 -1 -0 -0 -0 -0 0 0 -0 -0 -0 -0 -0 0 1 0 0 0 0 0 -1 -0 nan
nan -0 0 0 1 1 0 -0 -0 -1 -1 -1 0 0 0 0 0 -0 -0 -1 -1 -1 -0 -0 -0 0 -0 -0 -0 -0 -0 -0 -0 0 0 0 1 -0 -0 0 -0 0 nan
nan 0 0 0 0 0 0 -0 -0 -0 -1 -2 -1 -0 0 0 0 0 -0 -1 -1 -1 -1 -0 0 -0 -0 0 -0 -0 0 -0 -0 -0 -0 0 -0 -0 0 -1 0 -0 nan
nan 0 0 0 0 -0 -0 -1 -0 -1 -1 -1 -2 -2 -1 0 0 0 -0 -0 -0 -0 -1 -1 -0 0 0 0 0 0 -0 -0 0 -0 -1 -0 0 0 -1 -0 1 -0 nan
nan -0 -0 -1 0 -0 0 -1 -1 -0 -1 -1 -2 -2 -2 -0 0 -0 -0 -0 -0 -0 -1 -1 0 0 0 0 0 -0 0 -0 -0 -0 -0 -0 0 0 -0 -0 1 1 nan
nan 0 -0 -0 0 0 0 0 -1 -1 -0 -1 -1 -1 -1 -1 -1 -0 -0 -0 -0 -1 -1 -0 0 0 0 -0 -0 -0 -0 0 0 -0 -0 -0 -0 -0 0 1 1 -0 nan
nan 0 0 0 -0 0 -0 0 0 -1 -0 0 0 0 -1 -2 -1 -0 0 0 0 -0 -0 0 0 1 0 -0 -0 -0 0 0 0 -0 -0 0 -0 -0 -0 0 -0 0 nan
nan 1 0 0 -0 -0 -0 0 1 1 0 0 0 0 1 0 -1 0 1 0 0 0 0 0 0 0 -0 -0 0 0 -0 -0 -0 -0 0 -0 -0 -0 -0 -0 -0 0 nan
nan 0 1 0 0 -0 0 0 0 0 0 0 0 0 1 1 1 1 1 1 1 0 0 0 0 -0 -0 -1 -0 -0 -0 -0 -0 -0 0 -0 -1 -0 0 -0 0 0 nan
nan 0 1 0 0 0 -0 0 0 -0 0 -0 -0 0 0 -0 1 1 0 1 1 1 1 0 0 -0 -0 -1 -1 -0 1 1 0 1 0 -0 -0 -0 0 0 0 1 nan
nan 0 0 0 0 0 0 0 0 -0 -1 -0 -0 0 0 0 0 -0 0 0 -0 -0 0 0 0 0 0 1 1 1 1 1 1 1 1 1 1 0 0 0 0 0 nan
nan 0 -0 -0 0 0 0 0 0 -0 -0 -0 0 0 0 0 -0 0 0 -0 0 0 -0 -0 -0 -0 1 2 1 2 1 1 1 0 0 0 0 0 -0 -0 -0 -0 nan
nan -0 0 0 -0 0 0 0 0 0 0 -0 0 -0 -0 -0 -0 -0 -0 -0 -0 -0 -0 0 0 0 0 0 0 1 0 0 0 0 0 -0 -0 -0 -0 -0 -0 -0 nan
nan 0 0 0 0 0 -0 -0 -0 0 1 0 -0 -0 -0 -0 -0 -0 -0 -0 -0 -0 -0 0 0 0 0 0 0 0 0 0 0 -0 -0 -0 -0 -0 -0 -0 -0 -1 nan
nan 0 0 0 0 0 0 0 -0 -0 -0 0 0 0 -0 -0 -0 -0 -0 -0 -0 -0 -0 -0 -0 0 0 -0 0 0 0 0 -0 -0 -0 -0 0 -0 -0 -0 -0 -0 nan
nan 0 0 0 1 0 0 0 0 0 -0 -0 0 0 -0 -0 -0 -1 -0 -1 -1 -0 -0 -0 -0 0 -0 -1 -0 0 0 -0 -0 -0 0 0 -0 -0 -0 -1 -1 -1 nan
nan nan nan nan nan nan nan nan nan nan nan nan nan nan nan nan nan nan nan nan nan nan nan nan nan nan nan nan nan nan nan nan nan nan nan nan nan nan nan nan nan nan nan
Wind_Speed
23 26 28 29 30 26 28 33 36 38 41 44 41 43 45 47 49 50 49 44 43 44 44 43 41 39 35 36 37 36 38 38 34 35 33 31 29 30 31 29 30 27 27
30 31 32 33 34 35 37 34 36 37 38 41 43 41 41 39 40 42 45 46 44 41 43 42 40 43 42 38 39 40 42 40 40 38 33 23 30 32 32 31 30 31 30
31 33 37 38 40 41 40 41 41 34 35 37 39 39 39 40 40 40 40 40 43 47 43 44 45 41 44 44 43 43 43 41 39 41 30 12 17 31 34 36 35 34 33
32 36 36 38 36 36 37 34 31 29 32 33 37 39 41 43 47 45 43 41 42 44 46 46 44 46 44 43 42 43 47 46 44 40 41 35 16 17 18 38 41 38 37
31 33 35 34 33 32 31 23 22 26 31 31 34 38 41 43 45 40 35 37 39 40 43 47 45 44 48 41 41 43 45 45 44 43 47 46 35 24 15 23 31 40 44
32 30 31 32 32 28 24 20 21 23 28 27 32 37 39 42 42 41 40 38 38 40 41 44 46 45 44 48 41 39 41 47 47 49 49 48 41 38 30 19 21 30 35
29 30 32 33 30 28 23 17 22 23 24 26 29 33 38 39 43 44 40 39 38 38 40 42 44 45 44 46 44 42 38 39 45 46 48 47 43 44 42 40 33 30 32
28 29 31 31 30 30 30 25 19 21 26 27 27 31 36 37 39 44 41 38 39 38 38 39 41 43 42 40 42 43 42 38 37 42 48 47 48 45 44 40 37 30 31
26 28 30 32 34 33 30 25 24 16 20 23 24 26 32 36 39 39 38 37 36 38 36 37 37 38 40 39 39 38 41 41 40 39 39 42 42 42 42 44 40 39 31
24 25 28 32 35 34 29 25 21 19 15 18 20 22 22 26 34 34 34 36 37 33 33 32 33 36 37 34 32 33 35 35 39 40 38 40 42 39 37 38 40 42 44
25 28 29 30 33 35 36 30 27 21 20 13 14 20 23 23 24 26 30 31 33 33 29 27 27 31 31 32 31 30 30 33 35 36 39 41 42 41 40 43 40 41 40
25 27 29 30 31 32 34 35 32 29 28 25 22 18 21 22 21 25 27 31 31 33 32 27 24 27 29 30 30 31 30 29 31 32 35 40 41 36 37 39 41 44 41
22 26 29 30 31 32 30 31 32 32 28 27 23 26 17 18 20 23 24 24 28 30 32 31 26 26 26 27 31 31 32 31 33 34 34 33 33 39 43 39 35 43 42
20 24 26 29 31 31 31 31 28 29 31 30 24 18 19 17 16 18 21 22 24 26 25 26 27 28 27 28 28 28 29 31 30 32 32 32 32 34 33 39 40 37 38
17 22 25 27 30 31 31 31 30 27 30 30 20 14 12 16 17 16 16 21 23 25 26 26 27 26 29 28 29 30 33 31 29 30 32 34 34 34 33 34 33 35 36
16 19 22 25 28 29 29 29 30 26 27 29 22 16 12 13 22 16 17 15 19 21 22 24 26 26 27 28 31 31 30 29 30 33 34 35 32 33 34 33 31 31 34
15 18 21 24 26 27 26 26 26 23 24 26 24 19 15 5 14 19 24 20 15 16 19 21 24 26 28 31 32 34 34 32 32 29 30 27 30 35 38 39 36 34 37
14 16 19 22 23 25 24 22 22 22 22 24 27 25 20 17 14 11 15 21 24 23 24 24 26 28 32 35 34 34 33 29 32 31 31 29 29 34 34 33 36 37 36
13 15 18 19 21 22 21 21 21 21 22 24 24 24 24 21 18 16 12 11 9 10 8 7 8 14 21 28 33 36 35 36 37 33 25 29 26 33 28 31 35 32 27
15 14 16 18 20 20 19 18 19 19 22 23 22 19 19 19 21 19 18 16 13 17 14 15 15 16 12 13 17 16 20 27 25 20 18 20 14 12 9 6 8 12 12
16 16 15 17 18 18 17 17 16 17 18 18 18 17 15 15 13 12 12 12 13 12 13 14 16 17 20 21 22 23 21 21 18 14 11 8 5 2 3 7 7 9 11
16 18 16 16 17 16 16 16 16 15 14 15 15 15 15 14 13 10 9 10 9 10 13 13 15 16 15 15 17 15 14 13 9 9 7 4 4 4 6 6 7 10 12
19 18 17 16 17 17 15 15 15 15 14 13 13 13 13 15 13 13 11 9 9 10 11 11 13 14 15 15 15 13 11 9 8 8 6 4 3 4 4 6 7 9 12
20 18 17 16 16 16 16 14 13 13 14 12 11 11 12 11 13 13 14 14 14 13 12 14 13 13 13 13 13 13 12 11 10 9 8 7 6 6 7 7 9 11 13
22 19 17 16 16 16 16 14 13 12 13 12 8 8 9 11 12 12 15 15 15 16 15 14 13 13 13 14 14 12 11 11 10 8 7 6 7 8 9 11 13 14 16
24 23 19 17 17 16 15 14 13 12 11 11 9 7 7 7 8 9 11 12 13 14 14 13 11 11 10 8 8 7 8 7 7 5 8 10 13 16 18 20 21 22 23
Wind_Direction
326 319 310 303 295 291 289 282 280 278 279 277 272 262 259 262 260 256 253 244 245 247 246 248 248 249 239 235 236 234 227 234 231 227 225 227 227 234 236 235 234 235 240
329 320 312 301 296 290 282 281 280 277 274 270 271 269 259 257 254 257 255 249 239 241 241 237 241 245 246 240 234 235 238 236 237 221 223 218 226 232 235 236 237 238 239
331 325 314 305 300 296 295 286 276 279 273 269 266 269 263 254 251 249 248 245 245 238 237 238 235 240 245 244 239 233 234 235 232 225 217 203 219 228 227 230 235 238 237
330 322 319 318 315 308 301 294 272 276 275 268 261 258 262 255 255 254 250 247 244 241 234 236 235 233 242 244 241 239 236 235 235 231 224 225 230 209 222 229 235 237 238
329 325 328 325 322 321 309 298 282 275 278 267 259 258 257 258 259 253 247 245 244 241 238 232 235 234 233 239 241 237 236 234 237 230 228 233 223 217 221 226 230 234 237
328 328 326 330 335 342 325 312 299 284 284 273 260 257 259 259 259 256 247 242 241 240 240 234 231 233 233 234 233 239 239 239 238 238 237 234 233 224 224 233 242 241 241
336 338 343 347 342 339 334 320 300 288 287 284 277 269 266 263 259 257 252 242 236 236 236 233 229 229 231 233 236 237 240 241 238 237 245 235 239 243 238 240 242 243 245
343 350 358 357 350 335 318 316 311 303 285 283 276 269 269 269 264 258 249 243 237 232 233 232 229 229 230 232 237 234 238 241 241 239 235 248 245 242 244 238 246 243 239
356 4 6 3 358 349 336 321 300 316 305 305 285 274 261 262 263 257 249 242 239 233 230 233 229 230 230 231 233 240 239 239 244 246 244 242 240 249 250 251 249 234 243
359 3 8 8 7 5 356 348 327 302 303 299 305 292 279 264 255 249 247 239 235 233 226 230 230 229 229 228 232 237 240 238 240 244 244 244 249 249 248 246 260 255 250
332 346 357 6 7 11 11 358 353 344 324 315 298 288 280 270 262 257 247 240 233 232 227 226 227 226 226 224 226 232 238 239 239 242 246 245 244 254 256 254 256 252 255
333 337 347 353 356 5 10 13 2 346 338 319 299 289 281 281 269 260 253 240 231 229 228 227 225 223 227 226 228 229 232 238 244 246 245 246 245 247 250 242 246 248 255
330 340 349 354 356 357 360 5 7 2 351 335 297 294 269 262 268 261 252 247 234 231 231 228 228 234 236 234 229 231 237 244 247 251 254 254 252 250 249 251 259 250 253
328 335 343 350 353 355 354 358 357 360 352 341 323 297 283 249 249 252 247 239 234 230 227 237 238 234 232 235 235 233 237 244 248 247 251 255 252 254 254 250 254 252 252
326 331 340 346 351 356 353 355 359 358 354 353 352 342 288 248 235 235 237 237 236 238 241 243 242 235 233 236 238 240 249 251 246 242 247 253 256 257 258 257 260 260 260
321 329 338 345 351 354 352 357 355 0 1 9 14 7 339 273 233 228 228 236 231 233 234 232 234 237 238 243 244 248 249 250 255 246 250 249 257 260 262 258 260 256 255
318 328 339 343 347 353 353 359 355 4 12 16 29 35 46 78 241 226 228 233 236 235 239 242 243 245 245 241 241 244 249 256 257 251 242 250 259 258 257 260 265 265 257
313 327 337 342 347 352 354 360 1 10 18 19 34 40 52 69 107 171 207 227 235 244 246 249 253 250 248 252 250 245 245 243 245 243 241 257 265 255 251 256 260 265 255
313 327 337 341 347 353 358 1 6 16 21 26 29 43 52 63 69 89 118 134 169 176 173 188 215 239 251 258 259 247 233 231 236 245 249 262 250 256 260 259 240 241 238
311 322 334 339 343 353 359 4 9 15 24 24 28 34 45 51 69 77 78 85 94 93 102 104 94 90 95 130 193 205 206 185 216 208 188 212 208 221 222 203 205 229 240
308 317 327 333 339 349 356 2 6 14 23 22 25 31 38 46 50 58 66 62 73 77 77 71 71 76 78 88 105 123 135 142 142 142 140 138 163 214 322 283 293 294 293
299 307 318 324 330 343 351 356 360 6 17 17 26 31 31 34 43 43 58 70 69 74 70 68 68 67 70 77 83 91 98 100 108 99 86 56 29 353 330 321 312 301 299
297 298 307 316 320 331 340 347 355 356 1 10 18 27 34 36 34 44 50 52 60 61 58 55 59 63 68 77 80 82 90 94 89 88 82 68 59 39 14 7 356 340 331
285 289 296 305 310 320 327 336 347 350 347 353 9 19 24 37 38 40 47 49 52 49 49 49 49 53 62 70 75 78 80 82 83 83 78 67 52 36 29 17 5 358 353
280 280 283 290 299 307 314 324 334 342 337 336 352 8 24 21 25 34 38 43 47 43 39 39 38 43 50 52 59 62 69 67 68 63 64 61 55 46 37 25 15 7 359
271 275 278 280 287 292 299 308 317 324 327 326 335 357 13 26 29 17 24 30 36 36 33 36 37 40 47 50 56 55 61 66 73 55 53 50 42 35 28 24 21 17 10
Height
1498 1496 1493 1490 1487 1485 1483 1481 1477 1475 1475 1474 1474 1474 1473 1475 1477 1479 1483 1488 1490 1494 1497 1500 1503 1505 1509 1512 1515 1518 1517 1520 1524 1528 1530 1532 1535 1536 1536 1539 1540 1540 1540
1494 1491 1487 1483 1480 1475 1472 1469 1468 1467 1466 1466 1465 1466 1466 1466 1468 1470 1472 1477 1481 1485 1488 1492 1493 1496 1499 1502 1507 1511 1513 1515 1518 1519 1524 1526 1529 1530 1531 1533 1534 1535 1537
1492 1486 1481 1476 1471 1466 1463 1459 1458 1459 1458 1459 1458 1458 1458 1458 1459 1459 1462 1464 1469 1474 1478 1481 1486 1488 1490 1493 1497 1501 1505 1508 1511 1512 1515 1519 1519 1522 1523 1524 1526 1528 1530
1490 1485 1478 1470 1465 1459 1454 1449 1448 1450 1451 1451 1449 1449 1448 1447 1446 1449 1454 1457 1460 1463 1467 1471 1474 1479 1482 1484 1488 1492 1496 1501 1503 1507 1507 1510 1511 1513 1517 1517 1518 1521 1524
1489 1482 1474 1467 1461 1453 1446 1443 1442 1442 1442 1442 1443 1442 1441 1439 1439 1442 1444 1447 1451 1453 1457 1461 1465 1468 1473 1476 1479 1482 1487 1490 1495 1495 1499 1504 1505 1509 1509 1510 1509 1512 1514
1486 1480 1473 1465 1456 1449 1443 1441 1437 1436 1435 1434 1435 1434 1433 1433 1434 1434 1435 1436 1440 1444 1447 1451 1455 1459 1463 1467 1471 1474 1477 1481 1484 1488 1491 1494 1496 1497 1502 1505 1504 1505 1506
1484 1475 1467 1459 1451 1444 1439 1435 1434 1431 1429 1427 1426 1426 1424 1425 1425 1426 1428 1429 1430 1434 1437 1442 1445 1449 1453 1458 1463 1468 1470 1473 1475 1479 1482 1486 1488 1493 1498 1499 1501 1500 1501
1482 1474 1465 1457 1449 1443 1436 1431 1428 1426 1424 1422 1420 1418 1418 1417 1416 1417 1420 1422 1423 1424 1429 1434 1437 1442 1445 1449 1454 1460 1463 1466 1469 1471 1475 1478 1481 1486 1491 1492 1494 1495 1496
1477 1469 1462 1455 1447 1439 1432 1427 1422 1418 1418 1415 1412 1410 1410 1409 1408 1409 1412 1414 1417 1418 1422 1427 1430 1434 1438 1441 1446 1449 1454 1458 1461 1465 1468 1471 1473 1477 1482 1485 1487 1489 1489
1475 1468 1461 1453 1446 1437 1430 1424 1418 1415 1413 1411 1407 1404 1402 1402 1402 1403 1404 1406 1409 1413 1415 1419 1423 1427 1432 1435 1439 1442 1446 1450 1452 1456 1460 1463 1466 1468 1471 1473 1479 1480 1482
1474 1468 1460 1453 1445 1437 1428 1422 1416 1411 1407 1403 1401 1399 1397 1396 1397 1397 1397 1400 1404 1407 1409 1412 1417 1422 1425 1429 1432 1435 1440 1443 1445 1448 1451 1455 1459 1461 1464 1466 1468 1471 1473
1472 1466 1460 1452 1444 1437 1430 1422 1416 1410 1404 1398 1395 1393 1393 1392 1392 1392 1393 1396 1399 1404 1406 1408 1412 1417 1420 1423 1426 1429 1433 1437 1439 1441 1444 1446 1451 1451 1456 1455 1458 1459 1463
1469 1463 1457 1452 1445 1438 1432 1424 1416 1409 1402 1395 1391 1389 1388 1387 1388 1388 1389 1392 1395 1399 1403 1404 1407 1413 1416 1418 1421 1423 1426 1429 1432 1434 1435 1438 1440 1444 1447 1449 1451 1452 1454
1467 1462 1456 1451 1445 1439 1432 1425 1417 1410 1402 1395 1388 1383 1382 1383 1385 1386 1387 1390 1392 1396 1399 1400 1403 1407 1410 1412 1414 1417 1421 1423 1425 1427 1428 1430 1431 1434 1437 1440 1442 1445 1447
1465 1460 1455 1449 1443 1437 1430 1424 1419 1411 1404 1394 1385 1379 1377 1377 1380 1383 1385 1387 1390 1391 1393 1396 1399 1400 1403 1406 1409 1411 1414 1415 1417 1419 1421 1421 1422 1425 1429 1432 1433 1436 1438
1463 1459 1453 1448 1441 1436 1430 1424 1419 1413 1406 1396 1387 1380 1375 1374 1376 1380 1383 1385 1385 1387 1389 1390 1393 1394 1396 1400 1402 1404 1406 1409 1411 1413 1416 1417 1417 1417 1419 1422 1426 1428 1430
1459 1455 1451 1447 1442 1436 1431 1425 1420 1415 1408 1400 1391 1384 1378 1373 1374 1377 1379 1380 1382 1384 1385 1386 1387 1388 1389 1390 1393 1396 1400 1403 1405 1406 1408 1410 1411 1411 1413 1414 1415 1418 1419
1456 1453 1450 1446 1442 1438 1433 1428 1423 1417 1411 1404 1396 1389 1383 1378 1373 1373 1376 1377 1379 1380 1380 1380 1381 1381 1380 1381 1384 1388 1393 1396 1396 1397 1399 1402 1402 1402 1404 1406 1407 1409 1411
1453 1451 1447 1445 1441 1437 1433 1429 1425 1420 1414 1408 1402 1396 1390 1384 1381 1378 1377 1376 1375 1376 1375 1375 1375 1374 1372 1372 1372 1377 1384 1385 1387 1389 1394 1396 1395 1396 1396 1397 1397 1400 1401
1451 1448 1446 1443 1441 1437 1433 1428 1425 1421 1416 1411 1407 1402 1398 1393 1390 1386 1383 1382 1380 1381 1379 1376 1374 1374 1371 1369 1366 1368 1370 1375 1381 1384 1387 1387 1390 1389 1391 1391 1391 1394 1395
1449 1447 1444 1441 1438 1436 1433 1429 1425 1421 1417 1414 1410 1406 1402 1399 1396 1393 1390 1388 1386 1381 1383 1382 1379 1377 1376 1375 1373 1373 1375 1378 1380 1381 1384 1385 1386 1387 1387 1388 1389 1390 1391
1447 1445 1443 1441 1438 1434 1431 1429 1426 1422 1418 1415 1411 1408 1405 1402 1399 1397 1394 1391 1390 1388 1387 1385 1384 1382 1380 1378 1377 1378 1379 1380 1382 1381 1382 1383 1384 1386 1386 1387 1386 1386 1387
1443 1442 1440 1438 1436 1434 1431 1427 1425 1422 1419 1416 1413 1409 1406 1403 1401 1399 1397 1395 1392 1391 1390 1388 1386 1385 1384 1382 1381 1381 1381 1382 1381 1382 1382 1384 1385 1385 1385 1384 1384 1383 1382
1437 1437 1436 1435 1433 1431 1429 1427 1424 1422 1418 1416 1414 1412 1409 1405 1403 1401 1399 1397 1395 1393 1392 1390 1388 1387 1386 1385 1385 1384 1383 1383 1383 1383 1384 1385 1385 1384 1383 1381 1380 1379 1379
1431 1431 1430 1430 1430 1429 1426 1424 1422 1420 1420 1417 1413 1411 1410 1408 1405 1403 1401 1398 1397 1395 1393 1392 1391 1388 1387 1386 1386 1386 1385 1384 1385 1385 1385 1384 1383 1382 1381 1379 1378 1377 1375
1426 1425 1425 1425 1424 1424 1423 1421 1419 1418 1416 1415 1413 1411 1410 1407 1406 1404 1403 1401 1399 1397 1396 1395 1394 1392 1390 1389 1389 1389 1387 1386 1386 1386 1384 1383 1381 1379 1378 1377 1375 1373 1372